Location: Montbazon
(47.2835°N, 0.6999°E)
Time: 07:54:32
(UTC+00:00)

Cosmos 1300 Rocket - Pass Details

Date: 08 November 2025
Orbit: 594 x 620 km, 82.5° (Epoch: 12 December)

Event Time Altitude Azimuth Distance (km) Brightness Sun altitude
Rises 05:52:33 0° 342° (NNW) 2,882 6.7 -10.2°
Reaches altitude 10° 05:54:57 10° 332° (NNW) 1,968 5.8 -9.8°
Maximum altitude 05:58:49 32° 270° (W) 1,042 4.2 -9.2°
Drops below altitude 10° 06:02:38 10° 207° (SSW) 1,939 6.0 -8.6°
Sets 06:04:59 0° 197° (SSW) 2,833 6.9 -8.2°
